Location: Prague
(50.0830°N, 14.4670°E)
Time: 15:51:10
(UTC+01:00)

BEESAT 2 - Visible Passes

Search period start: 03 December 2022 00:00
Search period end: 13 December 2022 00:00
Orbit: 468 x 502 km, 64.9° (Epoch: 02 December)

Date Brightness Start Highest point End Pass type
(mag) Time Alt. Az. Time Alt. Az. Time Alt. Az.
03 Dec ? 17:43:34 10° WNW 17:45:52 15° NNW 17:48:02 10° N visible
04 Dec ? 17:17:46 10° WNW 17:20:15 16° NNW 17:22:45 10° NNE visible
05 Dec ? 16:51:57 10° WNW 16:54:37 18° NNW 16:57:19 10° NNE visible
08 Dec ? 17:15:29 10° NNW 17:15:53 10° NNW 17:16:17 10° N visible
09 Dec ? 16:49:13 10° NNW 16:50:06 11° NNW 16:51:00 10° N visible
